Tracking 19817 objects as of 19-Aug-2019
HD Live streaming from Space Station
objects crossing your sky now

COSMOS 2251 DEB

Track COSMOS 2251 DEB now!
10-day predictions


NORAD ID: 36541
Int'l Code: 1993-036BDB
Perigee: 668.5 km
Apogee: 714.3 km
Inclination: 74.0 °
Period: 98.4 minutes
Semi major axis: 7062 km
RCS: 0.0027 m2 (small)
Launch date: June 16, 1993
Source: Commonwealth of Independent States (former USSR) (CIS)
Launch site: PLESETSK MISSILE AND SPACE COMPLEX (PKMTR)

Note: This is SATELLITE DEBRIS
aabbcc
Your satellite tracking list
Your tracking list is empty




NASA's NSSDC Master Catalog

Two Line Element Set (TLE):
1 36541U 93036BDB 19230.59878237 +.00001978 +00000-0 +39103-3 0  9998
2 36541 074.0062 092.6265 0032481 356.5666 003.5273 14.62764293313691
Source of the keplerian elements: AFSPC